Weather History for Elbow Lake, MN

Change the Weather History Date:

Tuesday, March 26, 2013

  Actual Average (KFFM) Record (KFFM)
Temperature  
Mean Temperature 12 °F -  
Max Temperature 23 °F 41 °F 66 °F (1968)
Min Temperature 1 °F 22 °F -6 °F (1964)
Degree Days  
Heating Degree Days 53    
Moisture  
Dew Point 11 °F    
Average Humidity 87    
Maximum Humidity 100    
Minimum Humidity 80    
Precipitation  
Precipitation 0.00 in - - ()
Sea Level Pressure  
Sea Level Pressure 30.29 in    
Wind  
Wind Speed 6 mph (NW)    
Max Wind Speed 12 mph    
Max Gust Speed -    
Visibility 10 miles    
Events Fog , Snow    
Averages and records for this station are not official NWS values.
T = Trace of Precipitation, MM = Missing Value Source: NWS Daily Summary

Daily Weather History Graph

Daily Weather History Graph

Search for Another Location

Airport:

Trip Planner

Search our weather history database for the weather conditions in past years. The results will help you decide how hot, cold, wet, or windy it might be!

Date:

Astronomy

Mar. 26, 2013 Rise Set
Actual Time 7:14 AM CDT 7:44 PM CDT
Civil Twilight 6:44 AM CDT 8:14 PM CDT
Nautical Twilight 6:09 AM CDT 8:50 PM CDT
Astronomical Twilight 5:32 AM CDT 9:27 PM CDT
Moon 7:23 PM CDT (3/26) 6:33 AM CDT (3/26)
Length of Visible Light 13h 30m
Length of Day
12h 30m
Waxing Gibbous, 99% of the Moon is Illuminated
Mar 26
Waxing Gibbous
Mar 27
Full
Apr 2
Last Quarter
Apr 10
New
Apr 18
First Quarter

Hourly Weather History & Observations

Time (CDT) Temp. Windchill Dew Point Humidity Pressure Visibility Wind Dir Wind Speed Gust Speed Precip Events Conditions
12:15 AM 14.0 °F 2.9 °F 10.4 °F 86% 30.30 in 10.0 mi NW 8.1 mph - N/A   Clear
12:35 AM 12.2 °F -0.2 °F 8.6 °F 85% 30.30 in 10.0 mi NW 9.2 mph - N/A   Clear
12:55 AM 12.2 °F 0.7 °F 8.6 °F 85% 30.31 in 10.0 mi NW 8.1 mph - N/A   Clear
1:15 AM 12.2 °F -1.0 °F 8.6 °F 85% 30.30 in 10.0 mi NW 10.4 mph - N/A   Clear
1:55 AM 10.4 °F -1.5 °F 8.6 °F 92% 30.31 in 10.0 mi NW 8.1 mph - N/A   Clear
2:15 AM 10.4 °F -2.4 °F 8.6 °F 92% 30.30 in 10.0 mi NW 9.2 mph - N/A   Clear
2:55 AM 10.4 °F -1.5 °F 8.6 °F 92% 30.29 in 10.0 mi NNW 8.1 mph - N/A   Clear
3:15 AM 12.2 °F -1.8 °F 10.4 °F 92% 30.29 in 10.0 mi NNW 11.5 mph - N/A   Clear
3:35 AM 10.4 °F -0.4 °F 8.6 °F 92% 30.29 in 10.0 mi NNW 6.9 mph - N/A   Clear
3:55 AM 10.4 °F -0.4 °F 8.6 °F 92% 30.29 in 10.0 mi NNW 6.9 mph - N/A   Clear
4:15 AM 10.4 °F -1.5 °F 8.6 °F 92% 30.29 in 10.0 mi NW 8.1 mph - N/A   Clear
4:35 AM 8.6 °F -2.6 °F 5.0 °F 85% 30.28 in 10.0 mi NW 6.9 mph - N/A   Clear
4:55 AM 6.8 °F -7.8 °F 5.0 °F 92% 30.29 in 10.0 mi NW 10.4 mph - N/A   Clear
5:15 AM 6.8 °F -5.9 °F 5.0 °F 92% 30.28 in 10.0 mi NNW 8.1 mph - N/A   Clear
5:35 AM 8.6 °F -3.7 °F 5.0 °F 85% 30.28 in 10.0 mi NNW 8.1 mph - N/A   Clear
5:55 AM 8.6 °F -2.6 °F 6.8 °F 92% 30.28 in 10.0 mi NNW 6.9 mph - N/A   Clear
6:15 AM 6.8 °F -3.5 °F 5.0 °F 92% 30.29 in 10.0 mi NNW 5.8 mph - N/A   Clear
6:35 AM 5.0 °F -5.6 °F 1.4 °F 85% 30.29 in 10.0 mi NW 5.8 mph - N/A   Clear
6:55 AM 1.4 °F -6.2 °F -0.4 °F 92% 30.30 in 10.0 mi NW 3.5 mph - N/A   Clear
7:15 AM 1.4 °F -8.3 °F -0.4 °F 92% 30.30 in 10.0 mi NW 4.6 mph - N/A   Clear
7:35 AM 3.2 °F -4.2 °F -0.4 °F 85% 30.31 in 10.0 mi NNW 3.5 mph - N/A   Clear
7:55 AM 3.2 °F -4.2 °F 1.4 °F 92% 30.31 in 10.0 mi NNW 3.5 mph - N/A   Clear
8:15 AM 5.0 °F - 1.4 °F 85% 30.31 in 10.0 mi Calm Calm - N/A   Clear
8:35 AM 5.0 °F -2.1 °F 1.4 °F 85% 30.31 in 10.0 mi WNW 3.5 mph - N/A   Clear
8:55 AM 3.2 °F -4.2 °F 1.4 °F 92% 30.31 in 10.0 mi NW 3.5 mph - N/A   Clear
9:15 AM 6.8 °F - 3.2 °F 85% 30.31 in 5.0 mi Calm Calm - N/A Snow Light Snow
9:35 AM 8.6 °F 2.0 °F 5.0 °F 85% 30.31 in 10.0 mi North 3.5 mph - N/A   Clear
9:55 AM 10.4 °F 4.0 °F 6.8 °F 85% 30.31 in 10.0 mi NNW 3.5 mph - N/A   Clear
10:15 AM 8.6 °F 2.0 °F 6.8 °F 92% 30.31 in 10.0 mi WNW 3.5 mph - N/A   Clear
10:35 AM 10.4 °F 2.2 °F 6.8 °F 85% 30.32 in 10.0 mi West 4.6 mph - N/A   Clear
10:55 AM 10.4 °F 2.2 °F 8.6 °F 92% 30.32 in 10.0 mi West 4.6 mph - N/A   Clear
11:15 AM 10.4 °F 2.2 °F 8.6 °F 92% 30.32 in 10.0 mi WNW 4.6 mph - N/A   Clear
11:35 AM 12.2 °F 2.9 °F 8.6 °F 85% 30.32 in 10.0 mi WNW 5.8 mph - N/A   Clear
11:55 AM 12.2 °F 2.9 °F 8.6 °F 85% 30.32 in 10.0 mi WNW 5.8 mph - N/A   Clear
12:15 PM 14.0 °F 6.5 °F 10.4 °F 86% 30.31 in 10.0 mi WNW 4.6 mph - N/A   Clear
12:35 PM 14.0 °F 3.9 °F 12.2 °F 93% 30.32 in 10.0 mi NW 6.9 mph - N/A   Clear
12:55 PM 15.8 °F 7.2 °F 12.2 °F 86% 30.31 in 10.0 mi NW 5.8 mph - N/A   Clear
1:15 PM 17.6 °F 9.3 °F 14.0 °F 86% 30.31 in 10.0 mi NW 5.8 mph - N/A   Clear
1:35 PM 19.4 °F 10.4 °F 14.0 °F 80% 30.30 in 10.0 mi NW 6.9 mph - N/A   Clear
1:55 PM 19.4 °F 10.4 °F 14.0 °F 80% 30.30 in 10.0 mi NW 6.9 mph - N/A   Clear
2:15 PM 21.2 °F 12.6 °F 15.8 °F 80% 30.30 in 10.0 mi NW 6.9 mph - N/A   Clear
2:35 PM 21.2 °F 11.7 °F 17.6 °F 86% 30.30 in 10.0 mi NW 8.1 mph - N/A   Clear
2:55 PM 23.0 °F 13.9 °F 17.6 °F 80% 30.30 in 10.0 mi NW 8.1 mph - N/A   Clear
3:15 PM 23.0 °F 15.8 °F 17.6 °F 80% 30.29 in 10.0 mi NNW 5.8 mph - N/A   Clear
3:35 PM 23.0 °F 13.9 °F 17.6 °F 80% 30.28 in 10.0 mi NW 8.1 mph - N/A   Clear
3:55 PM 23.0 °F 13.9 °F 17.6 °F 80% 30.28 in 10.0 mi NW 8.1 mph - N/A   Clear
4:15 PM 23.0 °F 14.7 °F 17.6 °F 80% 30.27 in 10.0 mi NW 6.9 mph - N/A   Clear
4:35 PM 23.0 °F 14.7 °F 17.6 °F 80% 30.27 in 10.0 mi NW 6.9 mph - N/A   Clear
4:55 PM 23.0 °F 15.8 °F 17.6 °F 80% 30.27 in 10.0 mi NW 5.8 mph - N/A   Clear
5:15 PM 23.0 °F 15.8 °F 17.6 °F 80% 30.27 in 10.0 mi NW 5.8 mph - N/A   Clear
5:55 PM 23.0 °F 17.0 °F 17.6 °F 80% 30.26 in 10.0 mi WNW 4.6 mph - N/A   Clear
6:15 PM 23.0 °F - 17.6 °F 80% 30.26 in 10.0 mi Calm Calm - N/A   Clear
6:35 PM 23.0 °F 18.4 °F 17.6 °F 80% 30.26 in 10.0 mi North 3.5 mph - N/A   Clear
6:55 PM 23.0 °F 18.4 °F 17.6 °F 80% 30.26 in 10.0 mi North 3.5 mph - N/A   Clear
7:15 PM 21.2 °F 16.4 °F 17.6 °F 86% 30.26 in 10.0 mi North 3.5 mph - N/A   Clear
7:35 PM 21.2 °F - 17.6 °F 86% 30.26 in 10.0 mi Calm Calm - N/A   Clear
7:55 PM 21.2 °F - 17.6 °F 86% 30.26 in 10.0 mi Calm Calm - N/A   Clear
8:15 PM 19.4 °F - 17.6 °F 93% 30.26 in 10.0 mi Calm Calm - N/A   Clear
8:35 PM 19.4 °F - 15.8 °F 86% 30.26 in 10.0 mi Calm Calm - N/A   Clear
8:55 PM 17.6 °F - 14.0 °F 86% 30.26 in 10.0 mi Calm Calm - N/A   Clear
9:15 PM 15.8 °F - 12.2 °F 86% 30.26 in 10.0 mi Calm Calm - N/A   Clear
9:35 PM 14.0 °F - 14.0 °F 100% 30.27 in 10.0 mi Calm Calm - N/A   Clear
9:55 PM 15.8 °F - 14.0 °F 93% 30.27 in 10.0 mi Calm Calm - N/A   Clear
10:15 PM 14.0 °F - 14.0 °F 100% 30.28 in 7.0 mi Calm Calm - N/A   Clear
10:35 PM 14.0 °F - 12.2 °F 93% 30.28 in 10.0 mi Calm Calm - N/A   Clear
10:55 PM 14.0 °F - 12.2 °F 93% 30.28 in 7.0 mi Calm Calm - N/A   Clear
11:15 PM 12.2 °F - 10.4 °F 92% 30.28 in 0.2 mi Calm Calm - N/A Fog Light Freezing Fog
11:35 PM 12.2 °F - 8.6 °F 85% 30.28 in 3.0 mi Calm Calm - N/A   Scattered Clouds
11:55 PM 12.2 °F - 10.4 °F 92% 30.28 in 7.0 mi Calm Calm - N/A   Clear